Latest Coastal Weather Observations for Cape Grim

IDV60701

Issued at 10:15 pm EST Saturday 19 April 2014 (issued every 10 minutes, with the page automatically refreshed every 10 minutes)

About coastal observations | Map of coastal stations | Coastal observations for VIC | Marine services | Other Formats
Station Details ID: 091331 Name: CAPE GRIM Lat: -40.68 Lon: 144.69 Height: 86.0 m
Data from the previous 72 hours. | See also: Recent months for locations in Victoria
Date/Time
EST
Temp

°C
Wind Pressure Rain
since 9am
mm
Weather Cloud Vis
km
Sea
Height
m
Swell
Dir
 
Speed
knots
Gust
knots
hPa Trend Height
m
Period
s
Dir
19/10:00pm 11.9 W 8 14 1016.2 - 0.4 - Partly cloudy - - - - -
19/09:30pm 11.0 WSW 6 9 1016.5 - 0.4 - Cloudy - - - - -
19/09:00pm 10.3 SSW 9 11 1017.4 - 0.4 - Cloudy - - - - -
19/08:30pm 10.7 WSW 13 19 1017.0 - 0.2 - Partly cloudy - - - - -
19/08:00pm 10.8 W 16 23 1016.8 - 0.2 - Partly cloudy - - - - -
19/07:30pm 12.4 WSW 8 14 1016.7 - 0.0 - Partly cloudy - - - - -
19/07:00pm 12.1 W 8 13 1016.8 - 0.0 - Partly cloudy - - - - -
19/06:30pm 12.2 SW 9 16 1016.7 - 0.0 - Cloudy - - - - -
19/06:00pm 11.7 WSW 9 13 1017.3 - 0.0 - Cloudy - - - - -
19/05:30pm 11.8 WSW 12 22 1016.5 - 0.0 - Partly cloudy - - - - -
19/05:00pm 12.3 WSW 8 17 1016.5 - 0.0 - Partly cloudy - - - - -
19/04:30pm 12.6 SW 15 19 1016.7 - 0.0 - Partly cloudy - - - - -
19/04:00pm 13.0 SW 14 19 1016.9 - 0.0 - Partly cloudy - - - - -
19/03:30pm 12.5 SW 15 20 1017.0 - 0.0 - Partly cloudy - - - - -
19/03:00pm 12.3 SW 16 27 1017.8 - 0.0 - Cloudy - - - - -
19/02:30pm 12.5 SW 16 26 1017.0 - 0.0 - Partly cloudy - - - - -
19/02:00pm 13.5 SW 15 21 1017.1 - 0.0 - Partly cloudy - - - - -
19/01:30pm 13.5 SW 15 22 1017.3 - 0.0 - Partly cloudy - - - - -
19/01:00pm 13.4 SW 14 21 1017.3 - 0.0 - Partly cloudy - - - - -
19/12:30pm 13.2 SW 16 21 1017.8 - 0.0 - Partly cloudy - - - - -
19/12:00pm 13.9 SW 17 23 1018.9 - 0.0 - Partly cloudy - - - - -
19/11:30am 13.9 SW 16 23 1018.3 - 0.0 - Partly cloudy - - - - -
19/11:00am 12.8 SW 16 23 1018.4 - 0.0 - Partly cloudy - - - - -
19/10:30am 12.9 SW 16 24 1018.5 - 0.0 - Partly cloudy - - - - -
19/10:00am 13.1 SW 19 24 1018.5 - 0.0 - Partly cloudy - - - - -
19/09:30am 12.4 SW 21 26 1018.4 - 0.0 - Partly cloudy - - - - -
19/09:00am 12.7 SW 20 25 1019.1 - 0.4 - Cloudy - - - - -
19/08:30am 12.8 SW 19 26 1017.9 - 0.4 - Partly cloudy - - - - -
19/08:00am 12.4 SW 16 25 1017.8 - 0.4 - Partly cloudy - - - - -
19/07:30am 12.2 SW 20 27 1017.7 - 0.4 - Cloudy - - - - -
19/07:00am 12.2 SW 19 27 1017.3 - 0.4 - Partly cloudy - - - - -
19/06:30am 12.6 SW 21 26 1017.2 - 0.4 - Partly cloudy - - - - -
19/06:00am 12.3 SW 19 26 1017.9 - 0.4 - Cloudy - - - - -
19/05:30am 12.1 SW 19 25 1017.1 - 0.4 - Partly cloudy - - - - -
19/05:00am 12.0 SW 23 28 1017.0 - 0.4 - Partly cloudy - - - - -
19/04:30am 11.0 WSW 17 33 1017.0 - 0.4 - Partly cloudy - - - - -
19/04:00am 12.5 SW 20 30 1016.9 - 0.2 - Partly cloudy - - - - -
19/03:30am 12.5 SW 23 28 1016.9 - 0.2 - Partly cloudy - - - - -
19/03:00am 12.1 SW 19 26 1017.7 - 0.2 - Partly cloudy - - - - -
19/02:30am 11.7 SSW 17 23 1017.1 - 0.2 - Partly cloudy - - - - -
19/02:21am 12.0 SSW 17 28 1017.1 - 0.2 - Partly cloudy - - - - -
19/02:00am 12.2 SW 22 28 1017.3 - 0.2 - Partly cloudy - - - - -
19/01:30am 11.9 SW 25 31 1017.5 - 0.2 - Partly cloudy - - - - -
19/01:06am 12.0 SW 24 34 1017.3 - 0.2 - Partly cloudy - - - - -
19/01:00am 12.0 SW 23 29 1017.4 - 0.2 - Partly cloudy - - - - -
19/12:30am 12.4 SW 23 30 1017.3 - 0.2 - Partly cloudy - - - - -
19/12:00am 10.9 SW 26 33 1018.3 - 0.2 - Cloudy - - - - -
 
Date/Time
EST
Temp

°C
Wind Pressure Rain
since 9am
mm
Weather Cloud Vis
km
Sea
Height
m
Swell
Dir
 
Speed
knots
Gust
knots
hPa Trend Height
m
Period
s
Dir
18/11:45pm 12.1 SW 22 32 1017.3 - 0.2 - Partly cloudy - - - - -
18/11:30pm 12.5 SW 25 32 1017.3 - 0.2 - Partly cloudy - - - - -
18/11:02pm 12.3 SW 25 35 1017.2 - 0.2 - Partly cloudy - - - - -
18/11:00pm 12.2 SW 26 35 1017.2 - 0.2 - Partly cloudy - - - - -
18/10:30pm 12.5 SW 28 34 1017.3 - 0.2 - Partly cloudy - - - - -
18/10:00pm 12.3 SW 27 35 1017.3 - 0.2 - Partly cloudy - - - - -
18/09:30pm 11.9 SW 31 41 1017.2 - 0.2 - Partly cloudy - - - - -
18/09:24pm 12.1 SW 29 41 1017.0 - 0.2 - Partly cloudy - - - - -
18/09:00pm 12.5 SW 29 36 1017.6 - 0.2 - Mostly clear - - - - -
18/08:30pm 12.8 SW 30 37 1016.5 - 0.2 - Partly cloudy - - - - -
18/08:00pm 12.4 SW 30 40 1016.3 - 0.2 - Partly cloudy - - - - -
18/07:47pm 13.1 SW 31 41 1016.2 - 0.2 - Partly cloudy - - - - -
18/07:43pm 12.8 SW 31 35 1016.1 - 0.2 - Partly cloudy - - - - -
18/07:30pm 12.6 WSW 19 38 1016.2 - 0.2 - Partly cloudy - - - - -
18/07:27pm 12.6 WSW 17 38 1016.1 - 0.2 - Partly cloudy - - - - -
18/07:00pm 13.1 SW 31 41 1015.9 - 0.2 - Partly cloudy - - - - -
18/06:40pm 13.3 SW 28 38 1015.6 - 0.2 - Partly cloudy - - - - -
18/06:30pm 13.3 SW 31 40 1015.5 - 0.2 - Partly cloudy - - - - -
18/06:00pm 13.4 SW 30 37 1015.9 - 0.2 - - - - - - -
18/05:30pm 13.4 SW 29 41 1014.8 - 0.2 - Partly cloudy - - - - -
18/05:16pm 13.4 SW 30 40 1014.7 - 0.2 - Partly cloudy - - - - -
18/05:00pm 13.4 SW 30 39 1014.6 - 0.2 - Partly cloudy - - - - -
18/04:30pm 13.4 SW 31 37 1014.5 - 0.2 - Partly cloudy - - - - -
18/04:22pm 13.1 SW 33 43 1014.4 - 0.2 - Partly cloudy - - - - -
18/04:17pm 13.8 SW 35 43 1014.3 - 0.2 - Partly cloudy - - - - -
18/04:09pm 13.7 SW 24 34 1014.2 - 0.2 - Partly cloudy - - - - -
18/04:00pm 13.7 SW 27 35 1014.2 - 0.2 - Partly cloudy - - - - -
18/03:36pm 14.3 SW 28 38 1014.0 - 0.2 - Partly cloudy - - - - -
18/03:30pm 14.2 SW 30 38 1013.9 - 0.2 - Partly cloudy - - - - -
18/03:00pm 14.2 SW 31 41 1014.3 - 0.2 - Partly cloudy - - - - -
18/02:33pm 14.1 SW 31 41 1013.4 - 0.2 - Partly cloudy - - - - -
18/02:30pm 14.7 SW 31 38 1013.4 - 0.2 - Partly cloudy - - - - -
18/02:09pm 13.5 SW 30 40 1013.1 - 0.2 - Partly cloudy - - - - -
18/02:00pm 13.6 SW 32 39 1013.0 - 0.2 - Partly cloudy - - - - -
18/01:30pm 14.1 SW 28 39 1012.7 - 0.2 - Partly cloudy - - - - -
18/01:00pm 14.6 SW 28 40 1012.6 - 0.2 - Partly cloudy - - - - -
18/12:30pm 15.0 SW 26 39 1012.6 - 0.2 - Partly cloudy - - - - -
18/12:00pm 14.1 SW 30 40 1013.4 - 0.2 - Partly cloudy - - - - -
18/11:59am 14.2 SW 29 39 1012.7 - 0.2 - Partly cloudy - - - - -
18/11:30am 14.6 SW 31 39 1012.7 - 0.2 - Partly cloudy - - - - -
18/11:01am 14.5 SW 30 40 1012.4 - 0.2 - Partly cloudy - - - - -
18/11:00am 14.3 SW 30 39 1012.4 - 0.2 - Partly cloudy - - - - -
18/10:30am 14.3 SW 31 41 1012.0 - 0.2 - Partly cloudy - - - - -
18/10:13am 13.9 SW 26 37 1012.0 - 0.2 - Partly cloudy - - - - -
18/10:00am 13.6 SW 26 33 1012.1 - 0.2 - Partly cloudy - - - - -
18/09:32am 13.1 SW 29 39 1012.1 - 0.2 - Partly cloudy - - - - -
18/09:30am 13.2 SW 27 36 1012.1 - 0.2 - Partly cloudy - - - - -
18/09:07am 12.9 SW 22 32 1011.9 - 0.0 - Partly cloudy - - - - -
18/09:00am 12.7 SW 23 33 1012.6 - 3.8 - Cloudy - - - - -
18/08:52am 12.8 SW 25 35 1011.9 - 3.8 - Partly cloudy - - - - -
18/08:46am 12.7 SW 24 31 1011.6 - 3.6 - Partly cloudy - - - - -
18/08:30am 12.9 SW 20 30 1011.8 - 3.0 - Partly cloudy - - - - -
18/08:29am 12.9 SW 20 30 1011.8 - 3.0 - Partly cloudy - - - - -
18/08:00am 12.5 SW 33 41 1011.6 - 3.0 - Partly cloudy - - - - -
18/07:56am 12.6 SW 34 42 1011.6 - 3.0 - Partly cloudy - - - - -
18/07:40am 12.4 SW 37 49 1011.0 - 2.8 - Partly cloudy - - - - -
18/07:33am 13.0 SW 25 43 1010.8 - 2.6 - Partly cloudy - - - - -
18/07:30am 12.5 W 28 43 1010.6 - 2.6 - Partly cloudy - - - - -
18/07:28am 13.1 W 28 38 1010.7 - 2.4 - Partly cloudy - - - - -
18/07:23am 12.9 W 31 38 1010.8 - 1.8 - Partly cloudy - - - - -
18/07:21am 14.4 NW 20 30 1010.4 - 1.0 - Partly cloudy - - - - -
18/07:00am 14.5 NW 21 27 1010.5 - 0.4 - Partly cloudy - - - - -
18/06:59am 14.5 NW 21 29 1010.5 - 0.4 - Partly cloudy - - - - -
18/06:43am 14.8 NW 19 29 1010.6 - 0.0 - Partly cloudy - - - - -
18/06:42am 14.9 NW 18 29 1010.6 - 0.0 - Partly cloudy - - - - -
18/06:30am 15.2 NW 19 25 1010.7 - 0.0 - Partly cloudy - - - - -
18/06:00am 15.4 NW 18 25 1011.6 - 0.0 - Cloudy - - - - -
18/05:30am 15.4 NNW 18 25 1011.2 - 0.0 - Partly cloudy - - - - -
18/05:00am 15.4 NW 18 26 1011.7 - 0.0 - Partly cloudy - - - - -
18/04:30am 15.3 NW 18 26 1011.8 - 0.0 - Partly cloudy - - - - -
18/04:00am 15.4 NNW 19 25 1012.1 - 0.0 - Partly cloudy - - - - -
18/03:30am 15.4 NW 16 23 1012.5 - 0.0 - Partly cloudy - - - - -
18/03:00am 15.6 NNW 17 23 1013.8 - 0.0 - Partly cloudy - - - - -
18/02:30am 15.6 NW 16 21 1013.5 - 0.0 - Partly cloudy - - - - -
18/02:00am 15.9 NNW 17 22 1013.9 - 0.0 - Partly cloudy - - - - -
18/01:30am 15.6 NNW 18 21 1014.1 - 0.0 - Partly cloudy - - - - -
18/01:00am 16.0 NNW 18 22 1014.5 - 0.0 - Partly cloudy - - - - -
18/12:30am 16.1 NNW 19 22 1015.0 - 0.0 - Partly cloudy - - - - -
18/12:00am 16.0 NNW 16 21 1016.2 - 0.0 - Cloudy - - - - -
 
Date/Time
EST
Temp

°C
Wind Pressure Rain
since 9am
mm
Weather Cloud Vis
km
Sea
Height
m
Swell
Dir
 
Speed
knots
Gust
knots
hPa Trend Height
m
Period
s
Dir
17/11:30pm 15.8 NNW 16 19 1015.7 - 0.0 - Partly cloudy - - - - -
17/11:00pm 15.7 NNW 14 17 1015.9 - 0.0 - Partly cloudy - - - - -
17/10:30pm 15.8 NNW 12 16 1016.3 - 0.0 - Partly cloudy - - - - -
17/10:00pm 15.7 N 11 14 1016.6 - 0.0 - Partly cloudy - - - - -
17/09:30pm 16.1 NNW 12 15 1016.8 - 0.0 - Partly cloudy - - - - -
17/09:00pm 15.5 N 10 11 1017.7 - 0.0 - - - - - - -
17/08:30pm 15.6 NNW 9 11 1016.9 - 0.0 - Partly cloudy - - - - -
17/08:00pm 16.2 NW 8 12 1017.3 - 0.0 - Partly cloudy - - - - -
17/07:30pm 15.4 N 8 11 1017.3 - 0.0 - Partly cloudy - - - - -
17/07:00pm 15.0 N 9 11 1017.3 - 0.0 - Partly cloudy - - - - -
17/06:30pm 15.8 N 8 10 1017.4 - 0.0 - Cloudy - - - - -
17/06:00pm 15.3 N 10 12 1018.4 - 0.0 - Mostly cloudy - - - - -
17/05:30pm 15.8 N 10 13 1017.7 - 0.0 - Partly cloudy - - - - -
17/05:00pm 15.8 N 11 13 1017.8 - 0.0 - Partly cloudy - - - - -
17/04:30pm 16.6 N 11 14 1017.7 - 0.0 - Partly cloudy - - - - -
17/04:00pm 17.1 N 11 13 1017.8 - 0.0 - - - - - - -
17/03:30pm 17.4 N 10 13 1017.9 - 0.0 - - - - - - -
17/03:00pm 17.6 N 10 13 1018.9 - 0.0 - - - - - - -
17/02:30pm 17.9 N 11 13 1018.2 - 0.0 - Partly cloudy - - - - -
17/02:00pm 18.1 N 11 13 1018.5 - 0.0 - Partly cloudy - - - - -
17/01:56pm 17.5 N 11 13 1018.4 - 0.0 - Partly cloudy - - - - -
17/01:30pm 18.0 N 9 12 1018.6 - 0.0 - Partly cloudy - - - - -
17/01:25pm 16.9 N 9 15 1018.6 - 0.0 - Partly cloudy - - - - -
17/01:00pm 17.2 NE 12 13 1018.8 - 0.0 - Partly cloudy - - - - -
17/12:30pm 17.1 NE 12 15 1019.0 - 0.0 - Partly cloudy - - - - -
17/12:00pm 17.1 NE 12 17 1020.3 - 0.0 - Cloudy - - - - -
17/11:30am 16.7 NE 11 13 1019.8 - 0.0 - Partly cloudy - - - - -
17/11:00am 17.7 NE 11 14 1019.8 - 0.0 - Partly cloudy - - - - -
17/10:30am 17.9 NE 9 11 1020.0 - 0.0 - Partly cloudy - - - - -
17/10:00am 17.4 NE 10 12 1019.9 - 0.0 - Partly cloudy - - - - -
17/09:30am 16.1 ENE 7 9 1019.9 - 0.0 - - - - - - -
17/09:00am 15.1 ENE 7 9 1020.6 - 0.0 - - - - - - -
17/08:30am 14.1 ENE 6 8 1019.7 - 0.0 - - - - - - -
17/08:00am 12.7 E 10 11 1019.4 - 0.0 - - - - - - -
17/07:30am 11.5 E 7 9 1019.5 - 0.0 - - - - - - -
17/07:00am 11.5 E 7 8 1019.3 - 0.0 - - - - - - -
17/06:30am 12.2 ENE 6 6 1019.3 - 0.0 - - - - - - -
17/06:00am 12.7 ENE 6 7 1020.0 - 0.0 - - - - - - -
17/05:30am 13.0 NE 5 6 1019.3 - 0.0 - - - - - - -
17/05:00am 13.3 NNE 7 7 1019.3 - 0.0 - - - - - - -
17/04:30am 13.3 NNE 8 9 1019.1 - 0.0 - - - - - - -
17/04:00am 13.2 NNE 9 10 1018.9 - 0.0 - - - - - - -
17/03:30am 13.1 NNE 10 10 1018.9 - 0.0 - - - - - - -
17/03:00am 13.2 NNE 9 11 1019.8 - 0.0 - - - - - - -
17/02:30am 13.5 NNE 10 11 1019.1 - 0.0 - - - - - - -
17/02:00am 13.0 NNE 10 11 1019.2 - 0.0 - - - - - - -
17/01:30am 13.5 NNE 10 11 1019.4 - 0.0 - - - - - - -
17/01:00am 13.4 NNE 10 11 1019.3 - 0.0 - - - - - - -
17/12:30am 13.5 NNE 11 13 1019.4 - 0.0 - - - - - - -
17/12:00am 13.5 NNE 10 11 1020.3 - 0.0 - - - - - - -
 
Date/Time
EST
Temp

°C
Wind Pressure Rain
since 9am
mm
Weather Cloud Vis
km
Sea
Height
m
Swell
Dir
 
Speed
knots
Gust
knots
hPa Trend Height
m
Period
s
Dir
16/11:30pm 13.3 NNE 9 11 1019.8 - 0.0 - Partly cloudy - - - - -
16/11:00pm 13.7 NNE 10 12 1019.6 - 0.0 - Partly cloudy - - - - -
16/10:30pm 13.6 NNE 10 11 1019.7 - 0.0 - Partly cloudy - - - - -

Other Formats:

Comma delimited format used in spreadsheet applications
http://www.bom.gov.au/fwo/IDV60701/IDV60701.95954.axf

JavaScript Object Notation format (JSON) in row-major order
http://www.bom.gov.au/fwo/IDV60701/IDV60701.95954.json